Location: *
(50.5490°S, 120.6730°E)
Time: 06:50:41
(UTC+00:00)

Daily predictions for brighter satellites

Satellite Brightness Start Highest point End
(mag) Time Altitude Azimuth Time Altitude Azimuth Time Altitude Azimuth
Lacrosse 5 rocket 3.4 12:05:44 10° WSW 12:08:46 26° WNW 12:08:46 26° WNW
Cosmos 1821 Rocket 4.4 12:23:29 10° SSW 12:28:41 59° SSW 12:28:41 59° SSW
Cosmos 2082 Rocket 4.3 12:34:22 10° SSW 12:36:13 17° S 12:36:13 17° S
USA 215 4.3 13:15:56 40° SW 13:15:56 40° SW 13:20:09 10° WSW
ATLAS 3B R/B 4.0 13:16:14 10° SW 13:20:43 36° SSW 13:20:43 36° SSW
SL-16 R/B 4.1 18:23:54 10° SSE 18:27:24 30° SE 18:27:24 30° SE
Lacrosse 5 4.5 18:42:23 17° ESE 18:42:23 17° ESE 18:43:38 10° ESE
ATLAS 5 CENTAUR R/B 4.3 18:16:11 10° WSW 18:39:52 62° SSE 18:45:23 10° ENE
ATLAS 5 CENTAUR R/B 3.9 18:48:42 31° SSE 18:48:42 31° SSE 18:51:38 10° SE
ATLAS 2AS CENTAUR R/B 4.2 18:56:50 24° S 18:56:50 24° S 19:01:21 10° SE
NOSS 3-1 (C) 3.9 19:24:29 56° E 19:24:29 56° E 19:29:15 10° NE
USA 229 DEB 4.5 19:26:12 41° NE 19:26:12 41° NE 19:30:20 10° NE
USA 229 4.4 19:26:15 42° NE 19:26:15 42° NE 19:30:26 10° NE
NOSS 3-1 (A) 3.9 19:26:08 56° SSE 19:26:25 56° SE 19:32:18 10° ENE
Cosmos 1943 Rocket 4.5 19:28:54 14° S 19:28:54 14° S 19:30:37 10° S
Lacrosse 4 Rocket 3.7 19:31:37 23° E 19:31:37 23° E 19:33:53 10° SE
SeaSat 1 4.3 19:34:17 10° SSE 19:36:12 22° S 19:36:12 22° S
Cosmos 1898 Rocket 4.4 19:39:58 44° ENE 19:40:11 44° ENE 19:45:12 10° SE
Cosmos 883 Rocket 4.4 19:51:14 10° SSW 20:03:44 12° N 20:04:04 10° N
Feng Yun 1-1 Rocket 4.2 19:55:11 10° NNE 20:00:39 77° ESE 20:06:09 10° SSW
MSX 4.0 19:55:23 10° NNE 20:01:07 70° ESE 20:06:56 10° SSW
Cosmos 1470 4.3 20:05:06 34° SE 20:05:06 34° SE 20:07:35 10° SSE
SJ 16-02 4.1 20:04:20 10° NE 20:07:18 18° E 20:10:17 10° SE
Cosmos 1980 Rocket 2.5 20:07:23 45° N 20:09:01 65° ENE 20:14:43 10° SE
Radarsat Rocket 4.4 20:01:29 10° NNE 20:09:30 89° WNW 20:16:37 10° SSW
Cosmos 1697 Rocket 2.5 20:11:31 78° WSW 20:11:36 78° WSW 20:17:20 10° SSE
SL-16 R/B 3.1 20:07:38 10° S 20:12:29 40° SW 20:12:29 40° SW
Cosmos 2278 3.9 20:15:59 56° SW 20:15:59 56° SW 20:21:22 10° SSE
Cosmos 2315 Rocket 3.9 20:11:46 10° SSW 20:18:14 73° W 20:24:34 10° N
Cosmos 2263 Rocket 2.6 20:14:17 19° SSW 20:18:21 61° SE 20:23:54 10° NE
CRYOSAT 2 4.3 20:14:52 10° S 20:19:51 84° E 20:21:40 40° N
Uosat 12 SS-18 rocket 4.3 20:21:06 59° SSE 20:21:21 60° SE 20:25:39 10° NE
Lacrosse 5 1.9 20:21:35 67° SSW 20:21:41 67° SSW 20:26:51 10° ESE
Cosmos 1656 4.0 20:23:46 45° SW 20:23:46 45° SW 20:28:36 10° SSE
SL-16 R/B 3.7 20:23:48 10° N 20:28:54 35° ENE 20:34:02 10° SE
Cosmos 2266 Rocket 4.1 20:28:35 48° WNW 20:29:56 57° WSW 20:36:23 10° S
Cosmos 1328 4.4 20:26:59 10° S 20:30:59 56° ESE 20:34:55 10° NNE
ATLAS 5 CENTAUR R/B 3.5 20:30:16 28° SW 20:31:17 29° SSW 20:36:20 10° SE
Cosmos 1867 3.7 20:33:38 33° NNW 20:36:04 71° NE 20:41:29 10° SE
USA 234 3.7 20:30:17 10° ESE 20:36:50 59° NE 20:41:20 21° NNW
Cosmos 967 Rocket 4.3 20:34:23 39° NW 20:36:57 85° SW 20:43:17 10° SE
Cosmos 2150 Rocket 4.2 20:35:29 16° NNW 20:39:41 72° ENE 20:44:58 10° SSE
CZ-2C R/B 2.3 20:35:46 10° N 20:40:26 59° W 20:45:20 10° SSW
Cosmos 2322 Rocket 3.4 20:37:25 10° N 20:42:41 42° ENE 20:48:00 10° SE
Cosmos 1953 3.5 20:48:05 29° SSW 20:48:05 29° SSW 20:50:20 10° S
ALOS 4.4 20:42:52 10° ENE 20:46:47 26° ESE 20:50:44 10° S
USA 161 4.0 20:45:34 10° SE 20:47:49 23° E 20:50:09 10° NNE
Cosmos 2298 Rocket 4.0 20:44:32 21° NNW 20:48:11 89° WSW 20:53:36 10° SSE
Okean-O 2.7 20:43:50 10° N 20:48:13 54° W 20:48:37 52° W
ATLAS 2AS CENTAUR R/B 3.6 20:44:16 15° SW 20:48:54 37° SSE 20:54:51 10° E
Nadezhda 1 Rocket 4.3 20:43:25 10° S 20:49:48 71° ESE 20:55:59 10° NNE
Cosmos 158 Rocket 3.7 20:48:06 20° SSW 20:51:29 73° WNW 20:56:26 10° NNE
Cosmos 1076 Rocket 3.3 20:48:24 10° SSW 20:52:43 72° W 20:57:00 10° N
Meteor 1-16 Rocket 4.4 20:47:38 10° N 20:52:55 67° E 20:58:21 10° SSE
Cosmos 2292 Rocket 4.4 20:49:16 10° N 20:53:36 65° E 20:59:30 10° SSE
CZ-4 R/B 3.1 20:51:41 10° NE 20:55:17 33° ESE 20:58:52 10° S
Cosmos 1048 Rocket 4.0 20:55:29 10° SSW 21:00:53 85° ESE 21:06:08 10° NNE
Okean 3 Rocket 3.5 20:56:31 10° SSW 21:01:00 66° W 21:05:28 10° N
GP-B 3.9 20:58:18 10° NNE 21:02:41 54° E 21:07:08 10° S
Cosmos 1703 3.6 21:01:01 10° S 21:05:00 69° ESE 21:08:57 10° NNE
CSL-04 Rocket 4.0 21:00:29 10° NNE 21:05:50 67° ESE 21:11:12 10° S
Cosmos 1484 Rocket 2.7 21:04:13 10° N 21:08:08 76° WNW 21:12:11 10° SSW
Cosmos 2285 Rocket 4.0 21:01:56 10° SSW 21:08:16 60° WNW 21:14:35 10° N
Lacrosse 4 Rocket 1.8 21:07:40 38° WSW 21:08:27 42° SW 21:12:30 10° SSE
Cosmos 1269 Rocket 4.1 21:06:21 10° SSW 21:11:44 79° ESE 21:17:04 10° NNE
NOSS 3-1 (C) 4.1 21:11:58 27° W 21:13:41 31° WNW 21:18:41 10° N
Meteor 1-28 Rocket 3.7 21:10:15 10° SSE 21:14:00 62° ENE 21:17:40 10° N
Meteor 1-11 4.2 21:08:37 10° SSW 21:14:31 77° W 21:20:18 10° N
SeaSat 1 4.4 21:12:59 10° S 21:15:02 13° SSW 21:15:43 12° SW
NOSS 3-1 (A) 3.8 21:13:39 22° WSW 21:17:08 40° WNW 21:22:29 10° N
Intercosmos 25 Rocket 3.9 21:15:13 10° SSW 21:19:51 38° W 21:23:08 10° NNW
Ariane Rocket 3.4 21:14:55 10° NNE 21:19:57 68° ESE 21:25:03 10° S
Cosmos 1898 Rocket 4.2 21:19:54 25° W 21:22:00 34° SW 21:26:50 10° SSE
METEOR-M 4.4 21:17:22 10° NNE 21:22:45 75° ESE 21:28:12 10° SSW
Cosmos 1408 Rocket 3.5 21:19:17 10° SSW 21:23:49 78° W 21:28:16 10° N
NOSS 2-3 (C) 4.4 21:18:04 11° SW 21:24:58 79° NW 21:30:30 10° NE
Cosmos 1937 Rocket 3.9 21:23:53 20° WNW 21:26:57 40° WSW 21:31:51 10° SSE
BREEZE-M DEB (TANK) 3.2 21:22:55 18° WNW 21:27:19 79° NNE 21:31:50 10° ESE
Cosmos 1626 2.8 21:27:52 10° SSW 21:31:19 33° W 21:34:43 10° NNW
Cosmos 1743 Rocket 4.0 21:27:58 10° S 21:32:33 69° ESE 21:37:04 10° NNE
BREEZE-M DEB (TANK) 3.1 21:35:28 22° WNW 21:36:43 32° NNW 21:41:23 10° NE
Cosmos 2058 2.8 21:33:55 10° SSW 21:38:08 82° W 21:42:17 10° N
FENGYUN 3A 4.1 21:33:04 10° NNE 21:38:30 69° ESE 21:43:59 10° S
Cosmos 1470 4.4 21:40:32 17° WSW 21:40:32 17° WSW 21:42:50 10° SSW
Cosmos 44 4.1 21:37:06 10° NNW 21:42:09 55° ENE 21:46:58 10° SE
Cosmos 372 Rocket 3.9 21:38:04 10° NNW 21:43:09 87° WSW 21:48:17 10° SSE
Cosmos 1125 Rocket 3.5 21:39:43 10° NNW 21:44:59 90° WSW 21:50:18 10° SSE
SJ 16-02 1.4 21:40:58 10° NNW 21:45:25 63° WSW 21:49:55 10° SSE
MOS 1-B Rocket 4.2 21:43:43 10° N 21:50:55 69° WNW 21:57:10 10° SSW
SMAP 3.4 21:46:54 10° N 21:51:25 46° W 21:56:01 10° SSW
Cosmos 494 Rocket 4.0 21:47:37 10° SSW 21:52:54 88° WNW 21:58:06 10° NNE
Cosmos 2360 Rocket 2.8 21:47:32 10° NNW 21:53:09 63° ENE 21:58:50 10° SE
Cosmos 1980 Rocket 3.1 21:49:07 13° W 21:53:23 30° SW 21:58:25 10° SSE
SL-16 R/B 4.3 21:53:47 10° SSW 21:55:35 11° SW 21:57:24 10° WSW
Cosmos 1697 Rocket 4.0 21:53:16 14° WSW 21:56:30 21° SW 22:00:47 10° SSE
Cosmos 1844 Rocket 2.8 21:53:18 10° SSW 21:58:58 80° ESE 22:04:36 10° NNE
Cosmos 1726 2.4 21:56:50 10° N 22:00:33 75° E 22:04:20 10° SSE
Cosmos 1908 3.2 21:57:10 10° NNW 22:01:02 72° WSW 22:04:58 10° S
Cosmos 2263 Rocket 3.1 21:57:13 10° SW 22:01:51 27° WNW 22:06:26 10° NNW
Meteor 2-1 Rocket 4.4 21:58:07 10° N 22:03:57 88° W 22:09:59 10° SSE
Aureole 2 Rocket 2.2 22:01:24 10° NW 22:04:06 43° WSW 22:06:48 10° SSE
Lacrosse 5 2.7 22:00:48 12° WSW 22:05:18 41° S 22:10:13 10° ESE
IRS-1A Rocket 4.4 22:03:18 10° NNE 22:09:10 77° WNW 22:15:11 10° SSW
SL-16 R/B 2.5 22:07:18 10° NW 22:12:49 49° SW 22:18:24 10° SSE
CZ-3 R/B 4.0 22:11:42 10° NW 22:16:13 13° NNW 22:19:14 10° N
USA 161 2.9 22:14:58 10° SSW 22:16:55 18° WSW 22:18:57 10° WNW
Cosmos-2242 3.8 22:13:12 10° NW 22:17:05 31° WSW 22:21:02 10° S
ATLAS 5 CENTAUR R/B 3.8 22:13:00 10° SW 22:17:45 23° S 22:22:06 10° ESE
Meteor 2-8 Rocket 4.5 22:11:37 10° SSW 22:17:46 71° W 22:23:49 10° N
Cosmos 2219 Rocket 4.4 22:13:14 10° NNE 22:18:09 32° ENE 22:23:10 10° SE
Cosmos 1844 3.8 22:12:57 10° SSW 22:18:45 88° ESE 22:24:24 10° NNE
Cosmos 1500 Rocket 3.7 22:15:35 10° SSW 22:19:52 51° W 22:24:08 10° N
USA 234 3.4 22:13:23 10° ESE 22:19:57 68° SSW 22:26:31 10° WNW
Cosmos 1867 4.4 22:15:13 10° W 22:20:06 33° SSW 22:25:00 10° SSE
ASTEX 1 3.4 22:15:58 10° S 22:21:03 77° W 22:26:02 10° NNW
Genesis I 3.0 22:17:30 10° SW 22:21:14 80° NW 22:24:55 10° NE
ALOS 2.6 22:19:25 10° N 22:23:59 48° W 22:28:37 10° SSW
COSMOS 2428 3.9 22:18:57 10° N 22:24:25 49° ENE 22:29:57 10° SE
Cosmos 44 Rocket 3.5 22:21:17 10° NW 22:26:22 82° NE 22:31:20 10° SE
Cosmos 2322 Rocket 2.6 22:21:24 10° WNW 22:26:45 42° SW 22:32:11 10° SSE
